Location: Friaudour
(46.0460°N, 1.2873°E)
Time: 04:42:23
(UTC+00:00)

Meteor 1-29 - Pass Details

Date: 14 July 2020
Orbit: 440 x 459 km, 97.7° (Epoch: 06 August)

Event Time Altitude Azimuth Distance (km) Brightness Sun altitude
Rises 00:55:01 0° 12° (NNE) 2,464 8.2 -21.2°
Reaches altitude 10° 00:57:03 10° 11° (N) 1,590 6.9 -21.1°
Enters shadow 01:00:23 80° 311° (NW) 465 2.9 -21.0°
